Regional Weather Roundup
Issued by NWS

Home | Current Version | Previous Version | Graphics & Text | Print | Product List | Glossary Off
Versions: 1 2 3 4 5 6 7 8 9 10 11 12 13 14 15 16 17 18 19 20 21 22 23 24 25 26 27 28 29 30 31 32 33 34 35 36 37 38 39 40 41 42 43 44 45 46 47 48 49 50

000
ASUS43 KTOP 181408
RWRKS

WEATHER ROUNDUP FOR KANSAS
NATIONAL WEATHER SERVICE GOODLAND KS
800 AM CST MON DEC 18 2017

NOTE:  "FAIR" INDICATES FEW OR NO CLOUDS BELOW 12,000 FEET WITH NO
SIGNIFICANT WEATHER AND/OR OBSTRUCTIONS TO VISIBILITY.

KSZ001>006-013>018-027>032-041>047-181500-
NORTHWEST KANSAS

CITY           SKY/WX    TMP DP  RH WIND       PRES   REMARKS
GOODLAND       CLOUDY    24  20  84 W9        29.99R
HAYS           CLOUDY    23  21  92 SW8       30.05R
HILL CITY      CLEAR     25  22  88 W7        30.02S
RUSSELL        CLOUDY    23  22  96 SW12      30.03S WCI  12
$$

KSZ061>065-074>080-084>089-181500-
SOUTHWEST KANSAS

CITY           SKY/WX    TMP DP  RH WIND       PRES   REMARKS
DODGE CITY     CLOUDY    24  20  84 SW7       30.08R FOG
ELKHART        CLOUDY    30  26  84 W6        30.05R
GARDEN CITY    CLOUDY    18  16  92 SE8       30.05R FOG
GREAT BEND     CLEAR     22  20  92 SW9       30.08R
LIBERAL        CLEAR     18  15  88 W9        30.07R
PRATT          CLOUDY    22  18  85 SW5       30.10S
$$

KSZ066>073-081>083-090>101-181500-
SOUTHEAST KANSAS

CITY           SKY/WX    TMP DP  RH WIND       PRES   REMARKS
CHANUTE        CLEAR     41  39  93 SW9       30.14R FOG
COFFEYVILLE    CLOUDY    44  40  85 SW10      30.17R FOG
HUTCHINSON     CLOUDY    25  23  92 CALM      30.10R
MEDICINE LODGE   N/A     21  19  92 N5        30.11S
NEWTON         CLOUDY    26  25  96 SW7       30.12R
PARSONS        CLOUDY    42  41  96 SW6       30.16R FOG
WICHITA INTL   CLOUDY    26  25  96 CALM      30.13R
WICHITA JABRA  CLOUDY    29  29 100 SW6       30.12R
WICHITA MCCONL CLOUDY    26  25  94 SW5       30.13R
WINFIELD       FOG       31  31 100 S3        30.17R VSB 1/4
$$

KSZ007>012-019>026-033>040-048>060-102>105-181500-
NORTHEAST KANSAS

CITY           SKY/WX    TMP DP  RH WIND       PRES   REMARKS
CONCORDIA      CLOUDY    29  26  89 SW10      30.02R WCI  20
EMPORIA        CLEAR     29  27  92 SW8       30.10R
LAWRENCE       CLEAR     35  35 100 SW5       30.08R FOG
MANHATTAN      CLEAR     28  25  88 SW8       30.06S FOG
MARYSVILLE     CLOUDY    28  28 100 S6        30.01S
OLATHE IND     MOCLDY    37  36  96 SW10      30.08S FOG     WCI  30
OLATHE EXE     CLOUDY    38  37  97 SW8       30.07R FOG
SALINA         CLOUDY    26  24  92 S5        30.07S
TOPEKA BILLARD CLEAR     33  32  96 CALM      30.07R FOG
TOPEKA FORBES  CLEAR     32  31  96 SW8       30.06S FOG
$$




USA.gov is the U.S. government's official web portal to all federal, state and local government web resources and services.